Wellsville, NY

5:15 PM EDT on October 14, 2019 (GMT -0400)
Wellsville Municipal-Tarantine

Weather History for KELZ - August, 2019

Change the Weather History Date:

Friday, August 30, 2019

  Actual Average (WUND) Record (WUND)
Temperature  
Mean Temperature 65 °F -  
Max Temperature 73 °F - - (-1)
Min Temperature 55 °F - - (-1)
Growing Degree Days 15 (Base 50)    
Moisture  
Dew Point 56 °F    
Average Humidity 73    
Maximum Humidity 93    
Minimum Humidity 51    
Precipitation  
Precipitation 0.00 in - - ()
Sea Level Pressure  
Sea Level Pressure 30.05 in    
Wind  
Wind Speed 9 mph ()    
Max Wind Speed 17 mph    
Max Gust Speed 24 mph    
Visibility 10.0 miles    
Events      
Averages and records for this station are not official NWS values.
T = Trace of Precipitation, MM = Missing Value Source: Averaged Metar Reports

Daily Weather History Graph

Daily Weather History Graph

Search for Another Location

Airport or City:

Astronomy

Aug. 30, 2019 Rise Set
Actual Time 6:35 AM EDT 7:49 PM EDT
Civil Twilight 6:06 AM EDT 8:18 PM EDT
Nautical Twilight 5:31 AM EDT 8:52 PM EDT
Astronomical Twilight 4:54 AM EDT 9:29 PM EDT
Moon 6:32 AM EDT (8/30) 8:24 PM EDT (8/30)
Length of Visible Light 14h 12m
Length of Day
13h 14m
New Moon, 0% of the Moon is Illuminated
Aug 30
New Moon
Sep 5
First Quarter
Sep 14
Full
Sep 21
Last Quarter
Sep 28
New

Hourly Weather History & Observations

Time (EDT) Temp. Dew Point Humidity Pressure Visibility Wind Dir Wind Speed Gust Speed Precip Events Conditions
12:56 AM 60.1 °F 52.0 °F 75% 30.00 in 10.0 mi SW 11.5 mph 20.7 mph N/A   Clear
1:56 AM 60.1 °F 52.0 °F 75% 29.99 in 10.0 mi SW 9.2 mph - N/A   Clear
3:56 AM 60.1 °F 53.1 °F 78% 29.95 in 10.0 mi SW 11.5 mph - N/A   Clear
4:56 AM 61.0 °F 54.0 °F 78% 29.95 in 10.0 mi SW 9.2 mph - N/A   Overcast
5:56 AM 62.1 °F 55.0 °F 78% 29.96 in 10.0 mi SSW 10.4 mph - N/A   Overcast
6:56 AM 62.1 °F 55.9 °F 80% 29.97 in 10.0 mi SSW 9.2 mph - N/A   Overcast
7:26 AM 62.1 °F 55.9 °F 80% 29.99 in 10.0 mi SW 11.5 mph - N/A   Mostly Cloudy
7:56 AM 63.0 °F 55.9 °F 78% 29.99 in 10.0 mi SW 9.2 mph - N/A   Mostly Cloudy
8:05 AM 63.0 °F 57.0 °F 81% 30.01 in 10.0 mi SW 6.9 mph - N/A   Mostly Cloudy
8:23 AM 63.0 °F 57.0 °F 81% 30.01 in 10.0 mi SW 10.4 mph 18.4 mph N/A   Mostly Cloudy
8:56 AM 63.0 °F 57.0 °F 81% 30.01 in 10.0 mi WSW 9.2 mph 18.4 mph N/A   Mostly Cloudy
9:24 AM 64.9 °F 57.9 °F 78% 30.04 in 10.0 mi WSW 9.2 mph - N/A   Mostly Cloudy
9:56 AM 66.9 °F 59.0 °F 76% 30.02 in 10.0 mi West 11.5 mph 19.6 mph N/A   Partly Cloudy
10:20 AM 66.9 °F 60.1 °F 79% 30.05 in 10.0 mi West 11.5 mph 17.3 mph N/A   Mostly Cloudy
10:30 AM 68.0 °F 60.1 °F 76% 30.05 in 10.0 mi West 9.2 mph - N/A   Scattered Clouds
10:56 AM 68.0 °F 59.0 °F 73% 30.04 in 10.0 mi WNW 11.5 mph - N/A   Mostly Cloudy
11:06 AM 66.9 °F 59.0 °F 76% 30.07 in 10.0 mi West 10.4 mph - N/A   Overcast
12:22 PM 68.0 °F 59.0 °F 73% 30.07 in 10.0 mi WNW 12.7 mph 17.3 mph N/A   Mostly Cloudy
12:56 PM 73.0 °F 59.0 °F 61% 30.05 in 10.0 mi WNW 13.8 mph 24.2 mph N/A   Partly Cloudy
1:56 PM 73.9 °F 57.0 °F 55% 30.06 in 10.0 mi NW 15.0 mph 24.2 mph N/A   Scattered Clouds
2:56 PM 73.0 °F 54.0 °F 51% 30.06 in 10.0 mi WNW 17.3 mph 24.2 mph N/A   Partly Cloudy
3:56 PM 72.0 °F 54.0 °F 53% 30.07 in 10.0 mi WNW 12.7 mph - N/A   Partly Cloudy
4:56 PM 72.0 °F 53.1 °F 51% 30.08 in 10.0 mi NW 16.1 mph - N/A   Clear
5:56 PM 69.1 °F 52.0 °F 54% 30.09 in 10.0 mi WNW 11.5 mph - N/A   Clear
6:56 PM 64.9 °F 52.0 °F 63% 30.11 in 10.0 mi WNW 9.2 mph - N/A   Clear
7:56 PM 62.1 °F 52.0 °F 70% 30.14 in 10.0 mi NW 6.9 mph - N/A   Clear
8:56 PM 57.9 °F 52.0 °F 81% 30.17 in 10.0 mi WNW 6.9 mph - N/A   Clear
9:56 PM 60.1 °F 53.1 °F 78% 30.18 in 10.0 mi NW 9.2 mph - N/A   Clear
11:56 PM 55.9 °F 54.0 °F 93% 30.21 in 10.0 mi Calm Calm - N/A   Clear